This is the latest recevied weather packets stored in our database for station/object KC9MWQ-13. If no packets are shown the sender has not sent any weather packets the latest 10 day(s).
| Time | Temp. | Humidity | Pressure | Rain* | Wind** | Luminosity | Snow |
|---|---|---|---|---|---|---|---|
| 1778009963 | 9.44° C | 97% | 1009.3 hPa | 0 mm | - | 85 W/m² | - |
| 1778009661 | 9.44° C | 97% | 1009.3 hPa | 0 mm | - | 130 W/m² | - |
| 1778009359 | 9.44° C | 98% | 1009.5 hPa | 0 mm | - | 102 W/m² | - |
| 1778009057 | 9.44° C | 98% | 1009.5 hPa | 0 mm | - | 102 W/m² | - |
| 1778008754 | 9.44° C | 98% | 1009.5 hPa | 0 mm | - | 130 W/m² | - |
| 1778008453 | 8.89° C | 98% | 1009.6 hPa | 0 mm | - | 119 W/m² | - |
| 1778008149 | 9.44° C | 98% | 1009.8 hPa | 1.78 mm | - | 106 W/m² | - |
| 1778007844 | 9.44° C | 98% | 1009.6 hPa | 3.05 mm | - | 88 W/m² | - |
| 1778007539 | 9.44° C | 97% | 1009.8 hPa | 3.05 mm | - | 122 W/m² | - |
| 1778007236 | 9.44° C | 97% | 1009.6 hPa | 3.05 mm | - | 95 W/m² | - |
| 1778006933 | 9.44° C | 97% | 1010 hPa | 1.27 mm | - | 97 W/m² | - |
| 1778006630 | 9.44° C | 97% | 1009.9 hPa | 1.78 mm | - | 100 W/m² | - |
| 1778006327 | 9.44° C | 97% | 1009.9 hPa | 1.78 mm | - | 102 W/m² | - |
| 1778006024 | 9.44° C | 97% | 1010 hPa | 1.78 mm | - | 82 W/m² | - |
| 1778005720 | 10° C | 97% | 1009.7 hPa | 1.78 mm | - | 112 W/m² | - |
| 1778005417 | 10° C | 97% | 1010.1 hPa | 1.27 mm | - | 77 W/m² | - |
| 1778005114 | 10° C | 96% | 1009.7 hPa | 1.27 mm | - | 94 W/m² | - |
| 1778004811 | 10° C | 96% | 1009.7 hPa | 1.78 mm | - | 129 W/m² | - |
| 1778004507 | 10° C | 96% | 1010 hPa | 3.05 mm | - | 121 W/m² | - |
| 1778004204 | 10° C | 96% | 1009.8 hPa | 3.05 mm | - | 129 W/m² | - |
| 1778003901 | 10° C | 95% | 1010 hPa | 3.05 mm | - | 85 W/m² | - |
| 1778003597 | 10° C | 94% | 1009.9 hPa | 1.27 mm | - | 101 W/m² | - |
| 1778003294 | 10.56° C | 94% | 1010.1 hPa | 1.78 mm | - | 99 W/m² | - |
| 1778002991 | 10° C | 93% | 1009.9 hPa | 3.05 mm | - | 93 W/m² | - |
| 1778002687 | 10° C | 93% | 1010.1 hPa | 1.27 mm | - | 94 W/m² | - |
* Rain latest hour (hover to see other rain measurements)
** Current wind speed in m/s (hover to see current wind gust speed)